Time,TemperatureF,DewpointF,PressureIn,WindDirection,WindDirectionDegrees,WindSpeedMPH,WindSpeedGustMPH,Humidity,HourlyPrecipIn,Conditions,Clouds,dailyrainin,SolarRadiationWatts/m^2,SoftwareType,DateUTC
2013-04-22 00:02:00,27.0,27.0,-100.00,NNE,26,1.0,16.0,100,0.00,,,0.00,0.000000,,2013-04-22 06:02:00,
2013-04-22 00:11:00,27.0,27.0,-100.00,NNE,26,1.0,16.0,100,0.00,,,0.00,0.000000,,2013-04-22 06:11:00,
2013-04-22 00:21:00,27.0,27.0,-100.00,NNE,26,1.0,16.0,100,0.00,,,0.00,0.000000,,2013-04-22 06:21:00,
2013-04-22 00:52:00,26.0,26.0,-100.00,NNE,27,3.0,14.0,99,0.00,,,0.00,0.000000,,2013-04-22 06:52:00,
2013-04-22 01:01:00,26.0,26.0,-100.00,NNE,27,3.0,14.0,99,0.00,,,0.00,0.000000,,2013-04-22 07:01:00,
2013-04-22 01:11:00,26.0,26.0,-100.00,NNE,27,3.0,14.0,99,0.00,,,0.00,0.000000,,2013-04-22 07:11:00,
2013-04-22 01:21:00,26.0,26.0,-100.00,NNE,27,3.0,14.0,99,0.00,,,0.00,0.000000,,2013-04-22 07:21:00,
2013-04-22 01:52:00,25.0,25.0,-100.00,NNE,25,1.0,11.0,99,0.00,,,0.00,0.000000,,2013-04-22 07:52:00,
2013-04-22 02:01:00,25.0,25.0,-100.00,NNE,25,1.0,11.0,99,0.00,,,0.00,0.000000,,2013-04-22 08:01:00,
2013-04-22 02:11:00,25.0,25.0,-100.00,NNE,25,1.0,11.0,99,0.00,,,0.00,0.000000,,2013-04-22 08:11:00,
2013-04-22 02:21:00,25.0,25.0,-100.00,NNE,25,1.0,11.0,99,0.00,,,0.00,0.000000,,2013-04-22 08:21:00,
2013-04-22 02:52:00,24.0,24.0,-100.00,North,11,7.0,11.0,98,0.00,,,0.00,0.000000,,2013-04-22 08:52:00,
2013-04-22 03:01:00,24.0,24.0,-100.00,North,11,7.0,11.0,98,0.00,,,0.00,0.000000,,2013-04-22 09:01:00,
2013-04-22 03:11:00,24.0,24.0,-100.00,North,11,7.0,11.0,98,0.00,,,0.00,0.000000,,2013-04-22 09:11:00,
2013-04-22 03:21:00,24.0,24.0,-100.00,North,11,7.0,11.0,98,0.00,,,0.00,0.000000,,2013-04-22 09:21:00,
2013-04-22 03:52:00,23.0,22.0,-100.00,NNE,13,5.0,13.0,97,0.00,,,0.00,0.000000,,2013-04-22 09:52:00,
2013-04-22 04:03:00,23.0,22.0,-100.00,NNE,13,5.0,13.0,97,0.00,,,0.00,0.000000,,2013-04-22 10:03:00,
2013-04-22 04:12:00,23.0,22.0,-100.00,NNE,13,5.0,13.0,97,0.00,,,0.00,0.000000,,2013-04-22 10:12:00,
2013-04-22 04:22:00,23.0,22.0,-100.00,NNE,13,5.0,13.0,97,0.00,,,0.00,0.000000,,2013-04-22 10:22:00,
2013-04-22 04:52:00,22.0,21.0,-100.00,NNE,14,3.0,12.0,97,0.00,,,0.00,0.000000,,2013-04-22 10:52:00,
2013-04-22 05:02:00,22.0,21.0,-100.00,NNE,14,3.0,12.0,97,0.00,,,0.00,0.000000,,2013-04-22 11:02:00,
2013-04-22 05:12:00,22.0,21.0,-100.00,NNE,14,3.0,12.0,97,0.00,,,0.00,0.000000,,2013-04-22 11:12:00,
2013-04-22 05:22:00,22.0,21.0,-100.00,NNE,14,3.0,12.0,97,0.00,,,0.00,0.000000,,2013-04-22 11:22:00,
2013-04-22 05:52:00,21.0,20.0,-100.00,NNE,26,3.0,13.0,97,0.00,,,0.00,0.000000,,2013-04-22 11:52:00,
2013-04-22 06:01:00,21.0,20.0,-100.00,NNE,26,3.0,13.0,97,0.00,,,0.00,0.000000,,2013-04-22 12:01:00,
2013-04-22 06:12:00,21.0,20.0,-100.00,NNE,26,3.0,13.0,97,0.00,,,0.00,0.000000,,2013-04-22 12:12:00,
2013-04-22 06:21:00,21.0,20.0,-100.00,NNE,26,3.0,13.0,97,0.00,,,0.00,0.000000,,2013-04-22 12:21:00,
2013-04-22 06:52:00,21.0,20.0,-100.00,NNE,23,2.0,12.0,97,0.00,,,0.00,0.000000,,2013-04-22 12:52:00,
2013-04-22 07:01:00,21.0,20.0,-100.00,NNE,23,2.0,12.0,97,0.00,,,0.00,0.000000,,2013-04-22 13:01:00,
2013-04-22 07:11:00,21.0,20.0,-100.00,NNE,23,2.0,12.0,97,0.00,,,0.00,0.000000,,2013-04-22 13:11:00,
2013-04-22 07:22:00,21.0,20.0,-100.00,NNE,23,2.0,12.0,97,0.00,,,0.00,0.000000,,2013-04-22 13:22:00,
2013-04-22 07:53:00,20.0,19.0,-100.00,North,5,1.0,11.0,96,0.00,,,0.00,1.000000,,2013-04-22 13:53:00,
2013-04-22 08:02:00,20.0,19.0,-100.00,North,5,1.0,11.0,96,0.00,,,0.00,1.000000,,2013-04-22 14:02:00,
2013-04-22 08:11:00,20.0,19.0,-100.00,North,5,1.0,11.0,96,0.00,,,0.00,1.000000,,2013-04-22 14:11:00,
2013-04-22 08:21:00,20.0,19.0,-100.00,North,5,1.0,11.0,96,0.00,,,0.00,1.000000,,2013-04-22 14:21:00,
2013-04-22 08:52:00,22.0,20.0,-100.00,NNW,329,0.0,7.0,92,0.00,,,0.00,26.000000,,2013-04-22 14:52:00,
2013-04-22 09:01:00,22.0,20.0,-100.00,NNW,329,0.0,7.0,92,0.00,,,0.00,26.000000,,2013-04-22 15:01:00,
2013-04-22 09:11:00,22.0,20.0,-100.00,NNW,329,0.0,7.0,92,0.00,,,0.00,26.000000,,2013-04-22 15:11:00,
2013-04-22 09:22:00,22.0,20.0,-100.00,NNW,329,0.0,7.0,92,0.00,,,0.00,26.000000,,2013-04-22 15:22:00,
2013-04-22 09:53:00,23.0,19.0,-100.00,North,359,3.0,9.0,86,0.00,,,0.00,54.000000,,2013-04-22 15:53:00,
2013-04-22 10:02:00,23.0,19.0,-100.00,North,359,3.0,9.0,86,0.00,,,0.00,54.000000,,2013-04-22 16:02:00,
2013-04-22 10:12:00,23.0,19.0,-100.00,North,359,3.0,9.0,86,0.00,,,0.00,54.000000,,2013-04-22 16:12:00,
2013-04-22 10:23:00,23.0,19.0,-100.00,North,359,3.0,9.0,86,0.00,,,0.00,54.000000,,2013-04-22 16:23:00,
2013-04-22 10:52:00,27.0,17.0,-100.00,NNE,12,5.0,8.0,66,0.00,,,0.00,154.000000,,2013-04-22 16:52:00,
2013-04-22 11:02:00,27.0,17.0,-100.00,NNE,12,5.0,8.0,66,0.00,,,0.00,154.000000,,2013-04-22 17:02:00,
2013-04-22 11:12:00,27.0,17.0,-100.00,NNE,12,5.0,8.0,66,0.00,,,0.00,154.000000,,2013-04-22 17:12:00,
2013-04-22 11:22:00,27.0,17.0,-100.00,NNE,12,5.0,8.0,66,0.00,,,0.00,154.000000,,2013-04-22 17:22:00,
2013-04-22 11:52:00,29.0,17.0,-100.00,NNE,21,4.0,10.0,60,0.00,,,0.00,464.000000,,2013-04-22 17:52:00,
2013-04-22 12:01:00,29.0,17.0,-100.00,NNE,21,4.0,10.0,60,0.00,,,0.00,464.000000,,2013-04-22 18:01:00,
2013-04-22 12:12:00,29.0,17.0,-100.00,NNE,21,4.0,10.0,60,0.00,,,0.00,464.000000,,2013-04-22 18:12:00,
2013-04-22 12:21:00,29.0,17.0,-100.00,NNE,21,4.0,10.0,60,0.00,,,0.00,464.000000,,2013-04-22 18:21:00,
2013-04-22 12:52:00,31.0,18.0,-100.00,North,10,6.0,11.0,57,0.09,,,0.09,729.000000,,2013-04-22 18:52:00,
2013-04-22 13:01:00,31.0,18.0,-100.00,North,10,6.0,11.0,57,0.09,,,0.09,729.000000,,2013-04-22 19:01:00,
2013-04-22 13:11:00,31.0,18.0,-100.00,North,10,6.0,11.0,57,0.09,,,0.09,729.000000,,2013-04-22 19:11:00,
2013-04-22 13:21:00,31.0,18.0,-100.00,North,10,6.0,11.0,57,0.09,,,0.09,729.000000,,2013-04-22 19:21:00,
2013-04-22 13:52:00,33.0,19.0,-100.00,North,3,7.0,11.0,56,0.05,,,0.14,906.000000,,2013-04-22 19:52:00,
2013-04-22 14:02:00,33.0,19.0,-100.00,North,3,7.0,11.0,56,0.05,,,0.14,906.000000,,2013-04-22 20:02:00,
2013-04-22 14:11:00,33.0,19.0,-100.00,North,3,7.0,11.0,56,0.05,,,0.14,906.000000,,2013-04-22 20:11:00,
2013-04-22 14:22:00,33.0,19.0,-100.00,North,3,7.0,11.0,56,0.05,,,0.14,906.000000,,2013-04-22 20:22:00,
2013-04-22 14:52:00,33.0,19.0,-100.00,North,359,8.0,14.0,55,0.01,,,0.15,953.000000,,2013-04-22 20:52:00,
2013-04-22 15:02:00,33.0,19.0,-100.00,North,359,8.0,14.0,55,0.01,,,0.15,953.000000,,2013-04-22 21:02:00,
2013-04-22 15:11:00,33.0,19.0,-100.00,North,359,8.0,14.0,55,0.01,,,0.15,953.000000,,2013-04-22 21:11:00,
2013-04-22 15:21:00,33.0,19.0,-100.00,North,359,8.0,14.0,55,0.01,,,0.15,953.000000,,2013-04-22 21:21:00,
2013-04-22 15:53:00,35.0,19.0,-100.00,North,356,8.0,13.0,51,0.01,,,0.16,908.000000,,2013-04-22 21:53:00,
2013-04-22 16:02:00,35.0,19.0,-100.00,North,356,8.0,13.0,51,0.01,,,0.16,908.000000,,2013-04-22 22:02:00,
2013-04-22 16:12:00,35.0,19.0,-100.00,North,356,8.0,13.0,51,0.01,,,0.16,908.000000,,2013-04-22 22:12:00,
2013-04-22 16:22:00,35.0,19.0,-100.00,North,356,8.0,13.0,51,0.01,,,0.16,908.000000,,2013-04-22 22:22:00,
2013-04-22 16:52:00,36.0,18.0,-100.00,North,4,7.0,16.0,47,0.01,,,0.17,907.000000,,2013-04-22 22:52:00,
2013-04-22 17:02:00,36.0,18.0,-100.00,North,4,7.0,16.0,47,0.01,,,0.17,907.000000,,2013-04-22 23:02:00,
2013-04-22 17:11:00,36.0,18.0,-100.00,North,4,7.0,16.0,47,0.01,,,0.17,907.000000,,2013-04-22 23:11:00,
2013-04-22 17:21:00,36.0,18.0,-100.00,North,4,7.0,16.0,47,0.01,,,0.17,907.000000,,2013-04-22 23:21:00,
2013-04-22 17:52:00,36.0,16.0,-100.00,North,354,7.0,17.0,44,0.00,,,0.17,427.000000,,2013-04-22 23:52:00,
2013-04-22 18:01:00,36.0,16.0,-100.00,North,354,7.0,17.0,44,0.00,,,0.17,427.000000,,2013-04-23 00:01:00,
2013-04-22 18:12:00,36.0,16.0,-100.00,North,354,7.0,17.0,44,0.00,,,0.17,427.000000,,2013-04-23 00:12:00,
2013-04-22 18:21:00,36.0,16.0,-100.00,North,354,7.0,17.0,44,0.00,,,0.17,427.000000,,2013-04-23 00:21:00,
2013-04-22 18:52:00,40.0,15.0,-100.00,NNW,348,8.0,13.0,36,0.00,,,0.17,392.000000,,2013-04-23 00:52:00,
2013-04-22 19:01:00,40.0,15.0,-100.00,NNW,348,8.0,13.0,36,0.00,,,0.17,392.000000,,2013-04-23 01:01:00,
2013-04-22 19:11:00,40.0,15.0,-100.00,NNW,348,8.0,13.0,36,0.00,,,0.17,392.000000,,2013-04-23 01:11:00,
2013-04-22 19:21:00,40.0,15.0,-100.00,NNW,348,8.0,13.0,36,0.00,,,0.17,392.000000,,2013-04-23 01:21:00,
2013-04-22 19:52:00,39.0,12.0,-100.00,North,351,8.0,14.0,33,0.00,,,0.17,374.000000,,2013-04-23 01:52:00,
2013-04-22 20:01:00,39.0,12.0,-100.00,North,351,8.0,14.0,33,0.00,,,0.17,374.000000,,2013-04-23 02:01:00,
2013-04-22 20:12:00,39.0,12.0,-100.00,North,351,8.0,14.0,33,0.00,,,0.17,374.000000,,2013-04-23 02:12:00,
2013-04-22 20:21:00,39.0,12.0,-100.00,North,351,8.0,14.0,33,0.00,,,0.17,374.000000,,2013-04-23 02:21:00,
2013-04-22 20:52:00,34.0,12.0,-100.00,ENE,76,0.0,15.0,39,0.00,,,0.17,157.000000,,2013-04-23 02:52:00,
2013-04-22 21:01:00,34.0,12.0,-100.00,ENE,76,0.0,15.0,39,0.00,,,0.17,157.000000,,2013-04-23 03:01:00,
2013-04-22 21:11:00,34.0,12.0,-100.00,ENE,76,0.0,15.0,39,0.00,,,0.17,157.000000,,2013-04-23 03:11:00,
2013-04-22 21:21:00,34.0,12.0,-100.00,ENE,76,0.0,15.0,39,0.00,,,0.17,157.000000,,2013-04-23 03:21:00,
2013-04-22 21:53:00,30.0,16.0,-100.00,SSW,206,0.0,11.0,56,0.00,,,0.17,6.000000,,2013-04-23 03:53:00,
2013-04-22 22:03:00,30.0,16.0,-100.00,SSW,206,0.0,11.0,56,0.00,,,0.17,6.000000,,2013-04-23 04:03:00,
2013-04-22 22:12:00,30.0,16.0,-100.00,SSW,206,0.0,11.0,56,0.00,,,0.17,6.000000,,2013-04-23 04:12:00,
2013-04-22 22:23:00,30.0,16.0,-100.00,SSW,206,0.0,11.0,56,0.00,,,0.17,6.000000,,2013-04-23 04:23:00,
2013-04-22 22:53:00,29.0,19.0,-100.00,SW,232,0.0,4.0,67,0.00,,,0.17,0.000000,,2013-04-23 04:53:00,
2013-04-22 23:02:00,29.0,19.0,-100.00,SW,232,0.0,4.0,67,0.00,,,0.17,0.000000,,2013-04-23 05:02:00,
2013-04-22 23:12:00,29.0,19.0,-100.00,SW,232,0.0,4.0,67,0.00,,,0.17,0.000000,,2013-04-23 05:12:00,
2013-04-22 23:21:00,29.0,19.0,-100.00,SW,232,0.0,4.0,67,0.00,,,0.17,0.000000,,2013-04-23 05:21:00,
2013-04-22 23:52:00,26.0,18.0,-100.00,South,189,0.0,5.0,71,0.00,,,0.17,0.000000,,2013-04-23 05:52:00,